Regional Weather Roundup
Issued by NWS

Home | Current Version | Previous Version | Text Only | Print | Product List | Glossary On
Versions: 1 2 3 4 5 6 7 8 9 10 11 12 13 14 15 16 17 18 19 20 21 22 23 24 25 26 27 28 29 30 31 32 33 34 35 36 37 38 39 40 41 42 43 44 45 46 47 48 49 50
000
ASUS44 KLIX 041610
RWRLA
LOUISIANA WEATHER ROUNDUP
NATIONAL WEATHER SERVICE NEW ORLEANS LA
1000 AM CST WED MAR 04 2015

NOTE: "FAIR" INDICATES FEW OR NO CLOUDS BELOW 12,000 FEET WITH NO
      SIGNIFICANT WEATHER AND/OR OBSTRUCTIONS TO VISIBILITY.
      SKY/WX - SKY CONDITION AND SIGNIFICANT WEATHER.
      TMP - AIR TEMPERATURE.    DP   - DEWPOINT TEMPERATURE.
      RH  - RELATIVE HUMIDITY.  PRES - PRESSURE.
      HX  - HEAT INDEX.         WCI  - WIND CHILL INDEX.

*  THESE STATIONS ARE NOT NWS OR FAA STATIONS AND ARE NOT UNDER
   NWS QUALITY CONTROL.

LAZ040-048-061>063-065-066-069-041700-
SOUTHEAST LOUISIANA

CITY           SKY/WX    TMP DP  RH WIND       PRES   REMARKS
N.O. AUDUBON     N/A     76  72  86 MISG        N/A
N.O. INTL ARPT MOSUNNY   76  68  76 S9        30.01S
N.O. LAKEFRONT MOSUNNY   78  68  71 SE12      30.02S
SLIDELL        CLOUDY    75  69  81 S9        30.01F
BATON ROUGE    CLOUDY    74  68  81 S10       29.99S
BOOTHVILLE     MOSUNNY   76  70  82 S14       30.03S
BELLE CHASSE   PTSUNNY   78  68  71 S10       30.01S
BOGALUSA*        N/A     73  67  81 S7        30.03S
GALLIANO*      MOSUNNY   79  70  74 MISG      30.02S
NEW ROADS*     NOT AVBL
GONZALES*      NOT AVBL
HAMMOND*       NOT AVBL
HOUMA*         MOSUNNY   79  72  78 SE9       30.00S
PORT FOURCHON* NOT AVBL

$$

LAZ041-044-053-054-041700-
SOUTHWEST LOUISIANA

CITY           SKY/WX    TMP DP  RH WIND       PRES   REMARKS
LAKE CHARLES   CLOUDY    75  68  78 S15G21    29.95S
LAFAYETTE      CLOUDY    76  69  79 S14G21    29.98S
PATTERSON      PTSUNNY   75  70  83 S12       29.99F
SALT POINT       N/A     75  70  84 VRB7      29.97S
NEW IBERIA     MOSUNNY   77  69  76 S13       29.99R
CHENAULT AIRPK CLOUDY    73  66  78 S9        29.96S

$$

LAZ027-028-041700-
CENTRAL LOUISIANA

CITY           SKY/WX    TMP DP  RH WIND       PRES   REMARKS
FORT POLK      NOT AVBL
ALEXANDRIA INT CLOUDY    73  67  81 S12       29.94F
ALEXANDRIA     PTSUNNY   76  66  71 S10       29.96F

$$

LAZ001-002-041700-
NORTHWEST LOUISIANA

CITY           SKY/WX    TMP DP  RH WIND       PRES   REMARKS
SHREVEPORT     CLOUDY    72  66  81 SW13G21   29.88F
BARKSDALE AFB  NOT AVBL
DTN SHREVEPORT CLOUDY    71  65  81 S10       29.89S

$$

LAZ014-016-041700-
NORTHEAST LOUISIANA

CITY           SKY/WX    TMP DP  RH WIND       PRES   REMARKS
MONROE         SUNNY     75  67  76 S14G28    29.91F
TALLULAH       PTSUNNY   75  66  73 S12G20    29.96F

$$




USA.gov is the U.S. government's official web portal to all federal, state and local government web resources and services.